Regional Weather Roundup
Issued by NWS Cleveland, OH

Home | Current Version | Previous Version | Graphics & Text | Print | Product List | Glossary On
Versions: 1 2 3 4 5 6 7 8 9 10 11 12 13 14 15 16 17 18 19 20 21 22 23 24 25 26 27 28 29 30 31 32 33 34 35 36 37 38 39 40 41 42 43 44 45 46 47 48 49 50
000
ASUS41 KCLE 290700
RWRCLE
OHIO REGIONAL WEATHER ROUNDUP
NATIONAL WEATHER SERVICE WILMINGTON, OH
300 AM EDT SUN MAY 29 2016

NOTE: "FAIR" INDICATES FEW OR NO CLOUDS BELOW 12,000 FEET WITH NO
SIGNIFICANT WEATHER AND/OR OBSTRUCTIONS TO VISIBILITY.

OHZ001>008-015>018-024>027-034-035-043-044-290800-
   NORTHWEST OHIO

CITY           SKY/WX    TMP DP  RH WIND       PRES   REMARKS
DEFIANCE       FAIR      70  63  78 S5        30.06S
FINDLAY        FAIR      66  60  81 S7        30.07S
TOLEDO EXPRESS FAIR      66  62  87 SW6       30.05F
TOLEDO EXEC    FAIR      67  60  78 S6        30.07S
LIMA           MOCLDY    68  63  84 S7        30.08S
$$

OHZ009>014-019>023-028>033-038-089-290800-
   NORTHEAST OHIO

CITY           SKY/WX    TMP DP  RH WIND       PRES   REMARKS
CLE-HOPKINS    MOCLDY    68  63  84 S5        30.11R
CLE-LAKEFRONT  FAIR      73  63  70 S9        30.07R
CUY CO. ARPT   NOT AVBL
LORAIN-ELYRIA  FAIR      67  64  90 SW5       30.10R
ASHTABULA      FAIR      68  66  93 CALM      30.10S
AKRON-CANTON   MOCLDY    67  62  84 S3        30.11S
WOOSTER        NOT AVBL
MANSFIELD      FAIR      67  66  97 SE6       30.11S
YOUNGSTOWN     FAIR      66  63  90 SE3       30.11S
$$

OHZ042-051>053-060>062-070>072-077>081-290800-
  SOUTHWEST OHIO

CITY           SKY/WX    TMP DP  RH WIND       PRES   REMARKS
CINC-COVINGTON NOT AVBL
CINC-LUNKEN    CLOUDY    65  65 100 CALM      30.10S
HAMILTON       FAIR      67  64  90 CALM      30.10S
DAYTON         NOT AVBL
WRIGHT-PAT AFB NOT AVBL
DAYTON GENERAL CLOUDY    67  60  78 S6        30.10S
WILMINGTON     FAIR      67  62  84 CALM      30.10F
$$

OHZ036-037-039>041-045>050-054>059-063>069-073>076-082>088-290800-
  CENTRAL AND SOUTHEAST OHIO

CITY           SKY/WX    TMP DP  RH WIND       PRES   REMARKS
COLUMBUS       CLOUDY    66  65  96 CALM      30.10R
OSU AIRPORT    FAIR      67  66  97 CALM      30.10S
BOLTON FIELD   NOT AVBL
RICKENBACK AFB NOT AVBL
NEWARK         FAIR      65  63  93 CALM      30.10S FOG
MARION         FAIR      66  65  96 S7        30.10S FOG
LANCASTER      FAIR      67  65  93 CALM      30.11R FOG
ZANESVILLE     FAIR      68  64  87 CALM      30.10F
NEW PHILLY     FAIR      67  63  87 CALM      30.11S
$$




USA.gov is the U.S. government's official web portal to all federal, state and local government web resources and services.